P/2020 WJ5 ( Lemmon )

Japanese version
Home page
Updated on June 26, 2022

---------------------------------------------------------------------

* Profile

Discovery Date November 18, 2020
Magnitude 20.7 mag
Discoverer Mt. Lemmon Survey

* Pictures

* Orbital Elements

Epoch 2021 July 5.0 TT = JDT 2459400.5                                          
T 2021 July 3.85744 TT                                  Rudenko                 
q   4.9871160            (2000.0)            P               Q                  
n   0.06675144     Peri.  338.46487     -0.91654866     -0.39966095             
a   6.0186021      Node   177.81217     +0.39935096     -0.91657332             
e   0.1713830      Incl.   22.29054     +0.02138593     -0.01282500             
P  14.8                                                                         
From 229 observations 2020 Nov. 18-2022 Apr. 26, mean residual 0".4.            

* Magnitudes Graph

        m1 = -6.0 + 5 log d + 30 log r(t - 200)

---------------------------------------------------------------------

The orbital elements are published on M.P.E.C. 2022-H121.
The magnitudes graphs are made with Comet for Windows.

---------------------------------------------------------------------

Copyright(C) Seiichi Yoshida (comet@aerith.net). All rights reserved.